Weather in Brin-Navolok

Russia / Arkhangel'skaya Oblast'     63°44′11″N   41°24′59″E
temp.,
°C
wind,
m/s
gust,
m/s
humid.,
%
clouds,
%
prec.,
mm/h
press.,
hPa
HPBL,
m
17 may, tue
tue1700:00+3nne49755 0.0 1009597
03:00+2nne487398 0.0 1010795
06:00+3nne5864100 0.0 10111078
09:00+5nne4660100 0.0 10121163
12:00+7nne465276 0.0 10121409
15:00+9n464581 0.0 10131573
18:00+8n555398 0.0 10141528
21:00+4nne366385 0.0 1014679
18 may, wed
wed1800:00+3n2670100 0.0 1014330
03:00+1nne2580100 0.0 1014554
06:00+2n1272100 0.0 1014567
09:00+4nw116391 0.0 1012936
12:00+6wnw2255100 0.2 10111418
15:00+7wnw3455100 0.9 10101387
18:00+5nw4571100 1.0 10101007
21:00+2nw388818 1.2 1010409
19 may, thu
thu1900:00−1nw289714 0.0 1010239
03:000wnw289486 0.0 1010250
06:00+2nw4887100 0.1 1011817
09:00+4nnw5761100 0.7 10111545
12:00+6n5752100 1.0 10121848
15:00+7nne5744100 1.8 10132072
18:00+8n363675 0.1 10142277
21:00+4nnw396386 0.1 1016314
20 may, fri
fri2000:000n39835 0.0 1018304
03:00−2nnw38885 0.0 1019271
06:00+1n376535 0.0 1020788
09:00+5n464692 0.0 10201511
12:00+8nnw353793 0.0 10191998
15:00+9nnw4532100 0.0 10172417
18:00+8nnw454121 0.0 10171693
21:00+3n37595 0.0 1018196
21 may, sat
sat2100:00−1nne28700 0.0 1018222
03:00−3nne28825 0.0 1019200
06:000nne35675 0.0 1019498
09:00+4nne34425 0.0 10181245
12:00+8nne34315 0.0 10161814
15:00+9n34285 0.0 10152172
18:00+9nne342967 0.0 10142252
21:00+4nnw375721 0.0 1015180